Tracking 29892 objects as of 21-Nov-2024
HD Live streaming from Space Station
objects crossing your sky now

ONEWEB-0633

Track ONEWEB-0633 now!
10-day predictions
ONEWEB-0633 is classified as:


NORAD ID: 56074
Int'l Code: 2023-043AE
Perigee: 1,207.7 km
Apogee: 1,210.1 km
Inclination: 87.9 °
Period: 109.5 minutes
Semi major axis: 7579 km
RCS: Unknown
Launch date: March 26, 2023
Source: United Kingdom (UK)
Launch site: SRIHARIKOTA (SRI)
Your satellite tracking list
Your tracking list is empty




NASA's NSSDC Master Catalog

Two Line Element Set (TLE):
1 56074U 23043AE  24325.53878967 -.00000060  00000-0 -19256-3 0  9997
2 56074  87.9095  13.3979 0001584  81.8698 278.2612 13.15548934 80988
Source of the keplerian elements: AFSPC